New Orleans Lakefront, LA

5:46 PM CST on November 20, 2019 (GMT -0600)
Lakefront

Weather History for KNEW - September, 2019

Change the Weather History Date:

Thursday, September 26, 2019

  Actual Average Record
Temperature  
Mean Temperature 83 °F 77 °F  
Max Temperature 93 °F 85 °F 95 °F (2016)
Min Temperature 73 °F 69 °F 50 °F (1975)
Degree Days  
Heating Degree Days 0 0  
Month to date heating degree days 0 0  
Since 1 July heating degree days 0 0  
Cooling Degree Days 18 12  
Month to date cooling degree days 536 396  
Year to date cooling degree days 3177 2642  
Growing Degree Days 34 (Base 50)    
Moisture  
Dew Point 70 °F    
Average Humidity 67    
Maximum Humidity 93    
Minimum Humidity 41    
Precipitation  
Precipitation 0.00 in 0.14 in 2.65 in (2002)
Month to date precipitation 0.19 4.47  
Year to date precipitation 46.95 48.68  
Snow  
Snow 0.00 in - - ()
Month to date snowfall 0.0  
Since 1 July snowfall 0.0  
Since 1 September snowfall 0.0  
Snow Depth 0.00 in    
Sea Level Pressure  
Sea Level Pressure 29.91 in    
Wind  
Wind Speed 4 mph (West)    
Max Wind Speed 10 mph    
Max Gust Speed 15 mph    
Visibility 10 miles    
Events      
T = Trace of Precipitation, MM = Missing Value Source: NWS Daily Summary

Daily Weather History Graph

Daily Weather History Graph

Search for Another Location

Airport or City:

Astronomy

Sep. 26, 2019 Rise Set
Actual Time 6:50 AM CDT 6:51 PM CDT
Civil Twilight 6:26 AM CDT 7:15 PM CDT
Nautical Twilight 5:58 AM CDT 7:43 PM CDT
Astronomical Twilight 5:30 AM CDT 8:11 PM CDT
Moon 4:15 AM CDT (9/26) 5:50 PM CDT (9/26)
Length of Visible Light 12h 49m
Length of Day
12h 01m
Waning Crescent, 6% of the Moon is Illuminated
Sep 26
Waning Crescent
Sep 28
New
Oct 5
First Quarter
Oct 13
Full
Oct 21
Last Quarter

Hourly Weather History & Observations

Time (CDT) Temp. Heat Index Dew Point Humidity Pressure Visibility Wind Dir Wind Speed Gust Speed Precip Events Conditions
12:53 AM 80.1 °F 82.9 °F 69.1 °F 69% 29.91 in 10.0 mi WSW 9.2 mph - N/A   Clear
1:53 AM 79.0 °F - 70.0 °F 74% 29.90 in 10.0 mi WSW 9.2 mph - N/A   Clear
2:53 AM 78.1 °F - 71.1 °F 79% 29.88 in 10.0 mi WSW 6.9 mph - N/A   Clear
3:53 AM 79.0 °F - 71.1 °F 77% 29.89 in 10.0 mi WSW 8.1 mph - N/A   Clear
4:53 AM 79.0 °F - 70.0 °F 74% 29.91 in 10.0 mi West 9.2 mph - N/A   Clear
5:53 AM 79.0 °F - 71.1 °F 77% 29.93 in 10.0 mi WNW 8.1 mph - N/A   Clear
6:53 AM 79.0 °F - 71.1 °F 77% 29.94 in 10.0 mi NW 11.5 mph - N/A   Clear
7:53 AM 80.1 °F 83.6 °F 71.1 °F 74% 29.95 in 10.0 mi NNW 6.9 mph - N/A   Clear
8:53 AM 82.0 °F 86.3 °F 71.1 °F 69% 29.96 in 10.0 mi North 9.2 mph - N/A   Unknown
9:53 AM 82.9 °F 87.5 °F 71.1 °F 67% 29.97 in 10.0 mi North 8.1 mph - N/A   Clear
10:53 AM 84.0 °F 88.4 °F 70.0 °F 63% 29.98 in 10.0 mi North 6.9 mph - N/A   Clear
11:53 AM 84.9 °F 90.1 °F 71.1 °F 63% 29.97 in 10.0 mi North 4.6 mph - N/A   Clear
12:53 PM 84.0 °F 88.4 °F 70.0 °F 63% 29.95 in 10.0 mi WNW 4.6 mph - N/A   Partly Cloudy
1:53 PM 86.0 °F 90.7 °F 70.0 °F 59% 29.93 in 10.0 mi WNW 8.1 mph - N/A   Clear
2:53 PM 87.1 °F 92.0 °F 70.0 °F 57% 29.90 in 10.0 mi NW 6.9 mph - N/A   Partly Cloudy
3:53 PM 89.1 °F 94.1 °F 70.0 °F 53% 29.88 in 10.0 mi NNE 6.9 mph - N/A   Clear
4:53 PM 89.1 °F 92.1 °F 66.9 °F 48% 29.86 in 10.0 mi SE 8.1 mph - N/A   Clear
5:53 PM 88.0 °F 91.4 °F 68.0 °F 51% 29.86 in 10.0 mi SE 9.2 mph - N/A   Clear
6:53 PM 84.9 °F 88.2 °F 68.0 °F 57% 29.87 in 10.0 mi South 6.9 mph - N/A   Clear
7:53 PM 82.0 °F 84.9 °F 68.0 °F 62% 29.88 in 10.0 mi South 6.9 mph - N/A   Clear
8:53 PM 81.0 °F 84.1 °F 69.1 °F 67% 29.89 in 10.0 mi SSE 4.6 mph - N/A   Clear
9:53 PM 80.1 °F 82.9 °F 69.1 °F 69% 29.90 in 10.0 mi SSE 5.8 mph - N/A   Clear
10:53 PM 79.0 °F - 69.1 °F 72% 29.91 in 10.0 mi South 4.6 mph - N/A   Clear
11:53 PM 78.1 °F - 69.1 °F 74% 29.91 in 10.0 mi South 5.8 mph - N/A   Clear